owner,sensor,date,latitude,longitude,vertical_datum,sea_water_temperature,qcFlag 
TABS,ioos:station:wmo:42044:1,2002-08-01T00:00:00Z,26.1914,-97.0507,-2.0,26.27,11111222 
TABS,ioos:station:wmo:42044:1,2002-08-01T00:30:00Z,26.1914,-97.0507,-2.0,26.23,11111222 
TABS,ioos:station:wmo:42044:1,2002-08-01T01:00:00Z,26.1914,-97.0507,-2.0,26.19,11111222 
TABS,ioos:station:wmo:42044:1,2002-08-01T01:30:00Z,26.1914,-97.0507,-2.0,26.18,11111222 
TABS,ioos:station:wmo:42044:1,2002-08-01T02:00:00Z,26.1914,-97.0507,-2.0,26.16,11111222 
TABS,ioos:station:wmo:42044:1,2002-08-01T02:30:00Z,26.1914,-97.0507,-2.0,26.17,11111222 
TABS,ioos:station:wmo:42044:1,2002-08-01T03:30:00Z,26.1914,-97.0507,-2.0,26.15,11111222 
TABS,ioos:station:wmo:42044:1,2002-08-01T04:00:00Z,26.1914,-97.0507,-2.0,26.16,11111222 
TABS,ioos:station:wmo:42044:1,2002-08-01T04:30:00Z,26.1914,-97.0507,-2.0,26.16,11111222 
TABS,ioos:station:wmo:42044:1,2002-08-01T05:00:00Z,26.1914,-97.0507,-2.0,26.16,11111222 
TABS,ioos:station:wmo:42044:1,2002-08-01T05:30:00Z,26.1914,-97.0507,-2.0,26.16,11111222 
TABS,ioos:station:wmo:42044:1,2002-08-01T06:30:00Z,26.1914,-97.0507,-2.0,26.16,11111222 
TABS,ioos:station:wmo:42044:1,2002-08-01T07:00:00Z,26.1914,-97.0507,-2.0,26.15,11111222 
TABS,ioos:station:wmo:42044:1,2002-08-01T07:30:00Z,26.1914,-97.0507,-2.0,26.16,11111222 
TABS,ioos:station:wmo:42044:1,2002-08-01T08:00:00Z,26.1914,-97.0507,-2.0,26.15,11111222 
TABS,ioos:station:wmo:42044:1,2002-08-01T08:30:00Z,26.1914,-97.0507,-2.0,26.16,11111222 
TABS,ioos:station:wmo:42044:1,2002-08-01T09:30:00Z,26.1914,-97.0507,-2.0,26.22,11111222 
TABS,ioos:station:wmo:42044:1,2002-08-01T10:00:00Z,26.1914,-97.0507,-2.0,26.26,11111222 
TABS,ioos:station:wmo:42044:1,2002-08-01T10:30:00Z,26.1914,-97.0507,-2.0,26.3,11111222 
TABS,ioos:station:wmo:42044:1,2002-08-01T11:00:00Z,26.1914,-97.0507,-2.0,26.35,11111222 
TABS,ioos:station:wmo:42044:1,2002-08-01T11:30:00Z,26.1914,-97.0507,-2.0,26.36,11111222 
TABS,ioos:station:wmo:42044:1,2002-08-01T12:30:00Z,26.1914,-97.0507,-2.0,26.37,11111222 
TABS,ioos:station:wmo:42044:1,2002-08-01T13:00:00Z,26.1914,-97.0507,-2.0,26.36,11111222 
TABS,ioos:station:wmo:42044:1,2002-08-01T13:30:00Z,26.1914,-97.0507,-2.0,26.35,11111222 
TABS,ioos:station:wmo:42044:1,2002-08-01T14:00:00Z,26.1914,-97.0507,-2.0,26.35,11111222 
TABS,ioos:station:wmo:42044:1,2002-08-01T14:30:00Z,26.1914,-97.0507,-2.0,26.37,11111222 
TABS,ioos:station:wmo:42044:1,2002-08-01T15:30:00Z,26.1914,-97.0507,-2.0,26.39,11111222 
TABS,ioos:station:wmo:42044:1,2002-08-01T16:00:00Z,26.1914,-97.0507,-2.0,26.4,11111222 
TABS,ioos:station:wmo:42044:1,2002-08-01T16:30:00Z,26.1914,-97.0507,-2.0,26.41,11111222 
TABS,ioos:station:wmo:42044:1,2002-08-01T17:00:00Z,26.1914,-97.0507,-2.0,26.43,11111222 
TABS,ioos:station:wmo:42044:1,2002-08-01T17:30:00Z,26.1914,-97.0507,-2.0,26.43,11111222 
TABS,ioos:station:wmo:42044:1,2002-08-01T18:30:00Z,26.1914,-97.0507,-2.0,26.53,11111222 
TABS,ioos:station:wmo:42044:1,2002-08-01T19:00:00Z,26.1914,-97.0507,-2.0,26.54,11111222 
TABS,ioos:station:wmo:42044:1,2002-08-01T19:30:00Z,26.1914,-97.0507,-2.0,26.52,11111222 
TABS,ioos:station:wmo:42044:1,2002-08-01T20:00:00Z,26.1914,-97.0507,-2.0,26.59,11111222 
TABS,ioos:station:wmo:42044:1,2002-08-01T20:30:00Z,26.1914,-97.0507,-2.0,26.6,11111222 
TABS,ioos:station:wmo:42044:1,2002-08-01T21:30:00Z,26.1914,-97.0507,-2.0,26.7,11111222 
TABS,ioos:station:wmo:42044:1,2002-08-01T22:00:00Z,26.1914,-97.0507,-2.0,26.71,11111222 
TABS,ioos:station:wmo:42044:1,2002-08-01T22:30:00Z,26.1914,-97.0507,-2.0,26.74,11111222 
TABS,ioos:station:wmo:42044:1,2002-08-01T23:00:00Z,26.1914,-97.0507,-2.0,26.66,11111222 
TABS,ioos:station:wmo:42044:1,2002-08-01T23:30:00Z,26.1914,-97.0507,-2.0,26.69,11111222 
TABS,ioos:station:wmo:42044:1,2002-08-02T00:30:00Z,26.1914,-97.0507,-2.0,26.62,11111222 
TABS,ioos:station:wmo:42044:1,2002-08-02T01:00:00Z,26.1914,-97.0507,-2.0,26.6,11111222 
TABS,ioos:station:wmo:42044:1,2002-08-02T01:30:00Z,26.1914,-97.0507,-2.0,26.61,11111222 
TABS,ioos:station:wmo:42044:1,2002-08-02T02:00:00Z,26.1914,-97.0507,-2.0,26.56,11111222 
TABS,ioos:station:wmo:42044:1,2002-08-02T02:30:00Z,26.1914,-97.0507,-2.0,26.56,11111222 
TABS,ioos:station:wmo:42044:1,2002-08-02T03:30:00Z,26.1914,-97.0507,-2.0,26.52,11111222 
TABS,ioos:station:wmo:42044:1,2002-08-02T04:00:00Z,26.1914,-97.0507,-2.0,26.53,11111222 
TABS,ioos:station:wmo:42044:1,2002-08-02T04:30:00Z,26.1914,-97.0507,-2.0,26.54,11111222 
TABS,ioos:station:wmo:42044:1,2002-08-02T05:00:00Z,26.1914,-97.0507,-2.0,26.56,11111222 
TABS,ioos:station:wmo:42044:1,2002-08-02T05:30:00Z,26.1914,-97.0507,-2.0,26.57,11111222 
TABS,ioos:station:wmo:42044:1,2002-08-02T06:30:00Z,26.1914,-97.0507,-2.0,26.6,11111222 
TABS,ioos:station:wmo:42044:1,2002-08-02T07:00:00Z,26.1914,-97.0507,-2.0,26.61,11111222 
TABS,ioos:station:wmo:42044:1,2002-08-02T07:30:00Z,26.1914,-97.0507,-2.0,26.62,11111222 
TABS,ioos:station:wmo:42044:1,2002-08-02T08:00:00Z,26.1914,-97.0507,-2.0,26.63,11111222 
TABS,ioos:station:wmo:42044:1,2002-08-02T08:30:00Z,26.1914,-97.0507,-2.0,26.62,11111222 
TABS,ioos:station:wmo:42044:1,2002-08-02T09:30:00Z,26.1914,-97.0507,-2.0,26.6,11111222 
TABS,ioos:station:wmo:42044:1,2002-08-02T10:00:00Z,26.1914,-97.0507,-2.0,26.61,11111222 
TABS,ioos:station:wmo:42044:1,2002-08-02T10:30:00Z,26.1914,-97.0507,-2.0,26.59,11111222 
TABS,ioos:station:wmo:42044:1,2002-08-02T11:00:00Z,26.1914,-97.0507,-2.0,26.57,11111222 
TABS,ioos:station:wmo:42044:1,2002-08-02T11:30:00Z,26.1914,-97.0507,-2.0,26.56,11111222 
TABS,ioos:station:wmo:42044:1,2002-08-02T12:30:00Z,26.1914,-97.0507,-2.0,26.55,11111222 
TABS,ioos:station:wmo:42044:1,2002-08-02T13:00:00Z,26.1914,-97.0507,-2.0,26.55,11111222 
TABS,ioos:station:wmo:42044:1,2002-08-02T13:30:00Z,26.1914,-97.0507,-2.0,26.55,11111222 
TABS,ioos:station:wmo:42044:1,2002-08-02T14:00:00Z,26.1914,-97.0507,-2.0,26.56,11111222 
TABS,ioos:station:wmo:42044:1,2002-08-02T14:30:00Z,26.1914,-97.0507,-2.0,26.58,11111222 
TABS,ioos:station:wmo:42044:1,2002-08-02T15:30:00Z,26.1914,-97.0507,-2.0,26.64,11111222 
TABS,ioos:station:wmo:42044:1,2002-08-02T16:00:00Z,26.1914,-97.0507,-2.0,26.66,11111222 
TABS,ioos:station:wmo:42044:1,2002-08-02T16:30:00Z,26.1914,-97.0507,-2.0,26.69,11111222 
TABS,ioos:station:wmo:42044:1,2002-08-02T17:00:00Z,26.1914,-97.0507,-2.0,26.73,11111222 
TABS,ioos:station:wmo:42044:1,2002-08-02T17:30:00Z,26.1914,-97.0507,-2.0,26.89,11111222 
TABS,ioos:station:wmo:42044:1,2002-08-02T18:00:00Z,26.1914,-97.0507,-2.0,26.85,11111222 
TABS,ioos:station:wmo:42044:1,2002-08-02T18:30:00Z,26.1914,-97.0507,-2.0,26.95,11111222 
TABS,ioos:station:wmo:42044:1,2002-08-02T19:00:00Z,26.1914,-97.0507,-2.0,27.1,11111222 
TABS,ioos:station:wmo:42044:1,2002-08-02T19:30:00Z,26.1914,-97.0507,-2.0,27.16,11111222 
TABS,ioos:station:wmo:42044:1,2002-08-02T20:00:00Z,26.1914,-97.0507,-2.0,27.19,11111222 
TABS,ioos:station:wmo:42044:1,2002-08-02T20:30:00Z,26.1914,-97.0507,-2.0,27.27,11111222 
TABS,ioos:station:wmo:42044:1,2002-08-02T21:00:00Z,26.1914,-97.0507,-2.0,27.43,11111222 
TABS,ioos:station:wmo:42044:1,2002-08-02T21:30:00Z,26.1914,-97.0507,-2.0,27.45,11111222 
TABS,ioos:station:wmo:42044:1,2002-08-02T22:00:00Z,26.1914,-97.0507,-2.0,27.53,11111222 
TABS,ioos:station:wmo:42044:1,2002-08-02T22:30:00Z,26.1914,-97.0507,-2.0,27.54,11111222 
TABS,ioos:station:wmo:42044:1,2002-08-02T23:00:00Z,26.1914,-97.0507,-2.0,27.58,11111222 
TABS,ioos:station:wmo:42044:1,2002-08-02T23:30:00Z,26.1914,-97.0507,-2.0,27.55,11111222 
TABS,ioos:station:wmo:42044:1,2002-08-03T00:00:00Z,26.1914,-97.0507,-2.0,27.59,11111222 
TABS,ioos:station:wmo:42044:1,2002-08-03T00:30:00Z,26.1914,-97.0507,-2.0,27.6,11111222 
TABS,ioos:station:wmo:42044:1,2002-08-03T01:00:00Z,26.1914,-97.0507,-2.0,27.59,11111222 
TABS,ioos:station:wmo:42044:1,2002-08-03T01:30:00Z,26.1914,-97.0507,-2.0,27.55,11111222 
TABS,ioos:station:wmo:42044:1,2002-08-03T02:00:00Z,26.1914,-97.0507,-2.0,27.48,11111222 
TABS,ioos:station:wmo:42044:1,2002-08-03T02:30:00Z,26.1914,-97.0507,-2.0,27.47,11111222 
TABS,ioos:station:wmo:42044:1,2002-08-03T03:00:00Z,26.1914,-97.0507,-2.0,27.42,11111222 
TABS,ioos:station:wmo:42044:1,2002-08-03T03:30:00Z,26.1914,-97.0507,-2.0,27.45,11111222 
TABS,ioos:station:wmo:42044:1,2002-08-03T04:00:00Z,26.1914,-97.0507,-2.0,27.31,11111222 
TABS,ioos:station:wmo:42044:1,2002-08-03T04:30:00Z,26.1914,-97.0507,-2.0,27.34,11111222 
TABS,ioos:station:wmo:42044:1,2002-08-03T05:00:00Z,26.1914,-97.0507,-2.0,27.36,11111222 
TABS,ioos:station:wmo:42044:1,2002-08-03T05:30:00Z,26.1914,-97.0507,-2.0,27.36,11111222 
TABS,ioos:station:wmo:42044:1,2002-08-03T06:00:00Z,26.1914,-97.0507,-2.0,27.36,11111222 
TABS,ioos:station:wmo:42044:1,2002-08-03T06:30:00Z,26.1914,-97.0507,-2.0,27.36,11111222 
TABS,ioos:station:wmo:42044:1,2002-08-03T07:00:00Z,26.1914,-97.0507,-2.0,27.36,11111222 
TABS,ioos:station:wmo:42044:1,2002-08-03T07:30:00Z,26.1914,-97.0507,-2.0,27.36,11111222 
TABS,ioos:station:wmo:42044:1,2002-08-03T08:00:00Z,26.1914,-97.0507,-2.0,27.36,11111222 
TABS,ioos:station:wmo:42044:1,2002-08-03T08:30:00Z,26.1914,-97.0507,-2.0,27.38,11111222 
TABS,ioos:station:wmo:42044:1,2002-08-03T09:00:00Z,26.1914,-97.0507,-2.0,27.41,11111222 
TABS,ioos:station:wmo:42044:1,2002-08-03T09:30:00Z,26.1914,-97.0507,-2.0,27.39,11111222 
TABS,ioos:station:wmo:42044:1,2002-08-03T10:00:00Z,26.1914,-97.0507,-2.0,27.37,11111222 
TABS,ioos:station:wmo:42044:1,2002-08-03T10:30:00Z,26.1914,-97.0507,-2.0,27.38,11111222 
TABS,ioos:station:wmo:42044:1,2002-08-03T11:00:00Z,26.1914,-97.0507,-2.0,27.37,11111222 
TABS,ioos:station:wmo:42044:1,2002-08-03T11:30:00Z,26.1914,-97.0507,-2.0,27.36,11111222 
TABS,ioos:station:wmo:42044:1,2002-08-03T12:00:00Z,26.1914,-97.0507,-2.0,27.35,11111222 
TABS,ioos:station:wmo:42044:1,2002-08-03T12:30:00Z,26.1914,-97.0507,-2.0,27.34,11111222 
TABS,ioos:station:wmo:42044:1,2002-08-03T13:00:00Z,26.1914,-97.0507,-2.0,27.33,11111222 
TABS,ioos:station:wmo:42044:1,2002-08-03T13:30:00Z,26.1914,-97.0507,-2.0,27.34,11111222 
TABS,ioos:station:wmo:42044:1,2002-08-03T14:00:00Z,26.1914,-97.0507,-2.0,27.35,11111222 
TABS,ioos:station:wmo:42044:1,2002-08-03T14:30:00Z,26.1914,-97.0507,-2.0,27.37,11111222 
TABS,ioos:station:wmo:42044:1,2002-08-03T15:00:00Z,26.1914,-97.0507,-2.0,27.39,11111222 
TABS,ioos:station:wmo:42044:1,2002-08-03T15:30:00Z,26.1914,-97.0507,-2.0,27.4,11111222 
TABS,ioos:station:wmo:42044:1,2002-08-03T16:00:00Z,26.1914,-97.0507,-2.0,27.41,11111222 
TABS,ioos:station:wmo:42044:1,2002-08-03T16:30:00Z,26.1914,-97.0507,-2.0,27.42,11111222 
TABS,ioos:station:wmo:42044:1,2002-08-03T17:00:00Z,26.1914,-97.0507,-2.0,27.45,11111222 
TABS,ioos:station:wmo:42044:1,2002-08-03T17:30:00Z,26.1914,-97.0507,-2.0,27.52,11111222 
TABS,ioos:station:wmo:42044:1,2002-08-03T18:00:00Z,26.1914,-97.0507,-2.0,27.57,11111222 
TABS,ioos:station:wmo:42044:1,2002-08-03T18:30:00Z,26.1914,-97.0507,-2.0,27.62,11111222 
TABS,ioos:station:wmo:42044:1,2002-08-03T19:00:00Z,26.1914,-97.0507,-2.0,27.57,11111222 
TABS,ioos:station:wmo:42044:1,2002-08-03T19:30:00Z,26.1914,-97.0507,-2.0,27.61,11111222 
TABS,ioos:station:wmo:42044:1,2002-08-03T20:00:00Z,26.1914,-97.0507,-2.0,27.76,11111222 
TABS,ioos:station:wmo:42044:1,2002-08-03T20:30:00Z,26.1914,-97.0507,-2.0,27.91,11111222 
TABS,ioos:station:wmo:42044:1,2002-08-03T21:00:00Z,26.1914,-97.0507,-2.0,28.03,11111222 
TABS,ioos:station:wmo:42044:1,2002-08-03T21:30:00Z,26.1914,-97.0507,-2.0,28.06,11111222 
TABS,ioos:station:wmo:42044:1,2002-08-03T22:00:00Z,26.1914,-97.0507,-2.0,27.99,11111222 
TABS,ioos:station:wmo:42044:1,2002-08-03T22:30:00Z,26.1914,-97.0507,-2.0,28.01,11111222 
TABS,ioos:station:wmo:42044:1,2002-08-03T23:00:00Z,26.1914,-97.0507,-2.0,27.99,11111222 
TABS,ioos:station:wmo:42044:1,2002-08-03T23:30:00Z,26.1914,-97.0507,-2.0,27.97,11111222 
TABS,ioos:station:wmo:42044:1,2002-08-04T00:00:00Z,26.1914,-97.0507,-2.0,27.99,11111222 
TABS,ioos:station:wmo:42044:1,2002-08-04T00:30:00Z,26.1914,-97.0507,-2.0,28.01,11111222 
TABS,ioos:station:wmo:42044:1,2002-08-04T01:00:00Z,26.1914,-97.0507,-2.0,27.92,11111222 
TABS,ioos:station:wmo:42044:1,2002-08-04T01:30:00Z,26.1914,-97.0507,-2.0,27.87,11111222 
TABS,ioos:station:wmo:42044:1,2002-08-04T02:00:00Z,26.1914,-97.0507,-2.0,27.83,11111222 
TABS,ioos:station:wmo:42044:1,2002-08-04T02:30:00Z,26.1914,-97.0507,-2.0,27.89,11111222 
TABS,ioos:station:wmo:42044:1,2002-08-04T03:00:00Z,26.1914,-97.0507,-2.0,27.88,11111222 
TABS,ioos:station:wmo:42044:1,2002-08-04T03:30:00Z,26.1914,-97.0507,-2.0,27.92,11111222 
TABS,ioos:station:wmo:42044:1,2002-08-04T04:00:00Z,26.1914,-97.0507,-2.0,27.89,11111222 
TABS,ioos:station:wmo:42044:1,2002-08-04T04:30:00Z,26.1914,-97.0507,-2.0,27.84,11111222 
TABS,ioos:station:wmo:42044:1,2002-08-04T05:00:00Z,26.1914,-97.0507,-2.0,27.8,11111222 
TABS,ioos:station:wmo:42044:1,2002-08-04T05:30:00Z,26.1914,-97.0507,-2.0,27.82,11111222 
TABS,ioos:station:wmo:42044:1,2002-08-04T06:00:00Z,26.1914,-97.0507,-2.0,27.81,11111222 
TABS,ioos:station:wmo:42044:1,2002-08-04T06:30:00Z,26.1914,-97.0507,-2.0,27.75,11111222 
TABS,ioos:station:wmo:42044:1,2002-08-04T07:00:00Z,26.1914,-97.0507,-2.0,27.69,11111222 
TABS,ioos:station:wmo:42044:1,2002-08-04T07:30:00Z,26.1914,-97.0507,-2.0,27.62,11111222 
TABS,ioos:station:wmo:42044:1,2002-08-04T08:00:00Z,26.1914,-97.0507,-2.0,27.62,11111222 
TABS,ioos:station:wmo:42044:1,2002-08-04T08:30:00Z,26.1914,-97.0507,-2.0,27.55,11111222 
TABS,ioos:station:wmo:42044:1,2002-08-04T09:00:00Z,26.1914,-97.0507,-2.0,27.5,11111222 
TABS,ioos:station:wmo:42044:1,2002-08-04T09:30:00Z,26.1914,-97.0507,-2.0,27.4,11111222 
TABS,ioos:station:wmo:42044:1,2002-08-04T10:00:00Z,26.1914,-97.0507,-2.0,27.39,11111222 
TABS,ioos:station:wmo:42044:1,2002-08-04T10:30:00Z,26.1914,-97.0507,-2.0,27.36,11111222 
TABS,ioos:station:wmo:42044:1,2002-08-04T11:00:00Z,26.1914,-97.0507,-2.0,27.26,11111222 
TABS,ioos:station:wmo:42044:1,2002-08-04T11:30:00Z,26.1914,-97.0507,-2.0,27.17,11111222 
TABS,ioos:station:wmo:42044:1,2002-08-04T12:00:00Z,26.1914,-97.0507,-2.0,27.16,11111222 
TABS,ioos:station:wmo:42044:1,2002-08-04T12:30:00Z,26.1914,-97.0507,-2.0,27.1,11111222 
TABS,ioos:station:wmo:42044:1,2002-08-04T13:00:00Z,26.1914,-97.0507,-2.0,27.07,11111222 
TABS,ioos:station:wmo:42044:1,2002-08-04T13:30:00Z,26.1914,-97.0507,-2.0,27.04,11111222 
TABS,ioos:station:wmo:42044:1,2002-08-04T14:00:00Z,26.1914,-97.0507,-2.0,26.98,11111222 
TABS,ioos:station:wmo:42044:1,2002-08-04T14:30:00Z,26.1914,-97.0507,-2.0,26.97,11111222 
TABS,ioos:station:wmo:42044:1,2002-08-04T15:00:00Z,26.1914,-97.0507,-2.0,26.96,11111222 
TABS,ioos:station:wmo:42044:1,2002-08-04T15:30:00Z,26.1914,-97.0507,-2.0,27.01,11111222 
TABS,ioos:station:wmo:42044:1,2002-08-04T16:00:00Z,26.1914,-97.0507,-2.0,27.08,11111222 
TABS,ioos:station:wmo:42044:1,2002-08-04T16:30:00Z,26.1914,-97.0507,-2.0,27.1,11111222 
TABS,ioos:station:wmo:42044:1,2002-08-04T17:00:00Z,26.1914,-97.0507,-2.0,27.17,11111222 
TABS,ioos:station:wmo:42044:1,2002-08-04T17:30:00Z,26.1914,-97.0507,-2.0,27.21,11111222 
TABS,ioos:station:wmo:42044:1,2002-08-04T18:00:00Z,26.1914,-97.0507,-2.0,27.26,11111222 
TABS,ioos:station:wmo:42044:1,2002-08-04T18:30:00Z,26.1914,-97.0507,-2.0,27.33,11111222 
TABS,ioos:station:wmo:42044:1,2002-08-04T19:00:00Z,26.1914,-97.0507,-2.0,27.39,11111222 
TABS,ioos:station:wmo:42044:1,2002-08-04T19:30:00Z,26.1914,-97.0507,-2.0,27.41,11111222 
TABS,ioos:station:wmo:42044:1,2002-08-04T20:00:00Z,26.1914,-97.0507,-2.0,27.45,11111222 
TABS,ioos:station:wmo:42044:1,2002-08-04T20:30:00Z,26.1914,-97.0507,-2.0,27.53,11111222 
TABS,ioos:station:wmo:42044:1,2002-08-04T21:00:00Z,26.1914,-97.0507,-2.0,27.67,11111222 
TABS,ioos:station:wmo:42044:1,2002-08-04T21:30:00Z,26.1914,-97.0507,-2.0,27.8,11111222 
TABS,ioos:station:wmo:42044:1,2002-08-04T22:00:00Z,26.1914,-97.0507,-2.0,27.92,11111222 
TABS,ioos:station:wmo:42044:1,2002-08-04T22:30:00Z,26.1914,-97.0507,-2.0,28.14,11111222 
TABS,ioos:station:wmo:42044:1,2002-08-04T23:00:00Z,26.1914,-97.0507,-2.0,28.25,11111222 
TABS,ioos:station:wmo:42044:1,2002-08-04T23:30:00Z,26.1914,-97.0507,-2.0,28.25,11111222 
TABS,ioos:station:wmo:42044:1,2002-08-05T00:00:00Z,26.1914,-97.0507,-2.0,28.35,11111222 
TABS,ioos:station:wmo:42044:1,2002-08-05T00:30:00Z,26.1914,-97.0507,-2.0,28.4,11111222 
TABS,ioos:station:wmo:42044:1,2002-08-05T01:00:00Z,26.1914,-97.0507,-2.0,28.44,11111222 
TABS,ioos:station:wmo:42044:1,2002-08-05T01:30:00Z,26.1914,-97.0507,-2.0,28.44,11111222 
TABS,ioos:station:wmo:42044:1,2002-08-05T02:00:00Z,26.1914,-97.0507,-2.0,28.36,11111222 
TABS,ioos:station:wmo:42044:1,2002-08-05T02:30:00Z,26.1914,-97.0507,-2.0,28.29,11111222 
TABS,ioos:station:wmo:42044:1,2002-08-05T03:00:00Z,26.1914,-97.0507,-2.0,28.27,11111222 
TABS,ioos:station:wmo:42044:1,2002-08-05T03:30:00Z,26.1914,-97.0507,-2.0,28.23,11111222 
TABS,ioos:station:wmo:42044:1,2002-08-05T04:00:00Z,26.1914,-97.0507,-2.0,28.27,11111222 
TABS,ioos:station:wmo:42044:1,2002-08-05T04:30:00Z,26.1914,-97.0507,-2.0,28.27,11111222 
TABS,ioos:station:wmo:42044:1,2002-08-05T05:00:00Z,26.1914,-97.0507,-2.0,28.3,11111222 
TABS,ioos:station:wmo:42044:1,2002-08-05T05:30:00Z,26.1914,-97.0507,-2.0,28.3,11111222 
TABS,ioos:station:wmo:42044:1,2002-08-05T06:00:00Z,26.1914,-97.0507,-2.0,28.3,11111222 
TABS,ioos:station:wmo:42044:1,2002-08-05T06:30:00Z,26.1914,-97.0507,-2.0,28.3,11111222 
TABS,ioos:station:wmo:42044:1,2002-08-05T07:00:00Z,26.1914,-97.0507,-2.0,28.33,11111222 
TABS,ioos:station:wmo:42044:1,2002-08-05T07:30:00Z,26.1914,-97.0507,-2.0,28.32,11111222 
TABS,ioos:station:wmo:42044:1,2002-08-05T08:00:00Z,26.1914,-97.0507,-2.0,28.32,11111222 
TABS,ioos:station:wmo:42044:1,2002-08-05T08:30:00Z,26.1914,-97.0507,-2.0,28.27,11111222 
TABS,ioos:station:wmo:42044:1,2002-08-05T09:00:00Z,26.1914,-97.0507,-2.0,28.27,11111222 
TABS,ioos:station:wmo:42044:1,2002-08-05T09:30:00Z,26.1914,-97.0507,-2.0,28.24,11111222 
TABS,ioos:station:wmo:42044:1,2002-08-05T10:00:00Z,26.1914,-97.0507,-2.0,28.2,11111222 
TABS,ioos:station:wmo:42044:1,2002-08-05T10:30:00Z,26.1914,-97.0507,-2.0,28.18,11111222 
TABS,ioos:station:wmo:42044:1,2002-08-05T11:00:00Z,26.1914,-97.0507,-2.0,28.15,11111222 
TABS,ioos:station:wmo:42044:1,2002-08-05T11:30:00Z,26.1914,-97.0507,-2.0,28.14,11111222 
TABS,ioos:station:wmo:42044:1,2002-08-05T12:00:00Z,26.1914,-97.0507,-2.0,28.14,11111222 
TABS,ioos:station:wmo:42044:1,2002-08-05T12:30:00Z,26.1914,-97.0507,-2.0,28.17,11111222 
TABS,ioos:station:wmo:42044:1,2002-08-05T13:00:00Z,26.1914,-97.0507,-2.0,28.17,11111222 
TABS,ioos:station:wmo:42044:1,2002-08-05T13:30:00Z,26.1914,-97.0507,-2.0,28.16,11111222 
TABS,ioos:station:wmo:42044:1,2002-08-05T14:00:00Z,26.1914,-97.0507,-2.0,28.18,11111222 
TABS,ioos:station:wmo:42044:1,2002-08-05T14:30:00Z,26.1914,-97.0507,-2.0,28.19,11111222 
TABS,ioos:station:wmo:42044:1,2002-08-05T15:00:00Z,26.1914,-97.0507,-2.0,28.19,11111222 
TABS,ioos:station:wmo:42044:1,2002-08-05T15:30:00Z,26.1914,-97.0507,-2.0,28.19,11111222 
TABS,ioos:station:wmo:42044:1,2002-08-05T16:00:00Z,26.1914,-97.0507,-2.0,28.2,11111222 
TABS,ioos:station:wmo:42044:1,2002-08-05T16:30:00Z,26.1914,-97.0507,-2.0,28.18,11111222 
TABS,ioos:station:wmo:42044:1,2002-08-05T17:00:00Z,26.1914,-97.0507,-2.0,28.19,11111222 
TABS,ioos:station:wmo:42044:1,2002-08-05T17:30:00Z,26.1914,-97.0507,-2.0,28.19,11111222 
TABS,ioos:station:wmo:42044:1,2002-08-05T18:00:00Z,26.1914,-97.0507,-2.0,28.2,11111222 
TABS,ioos:station:wmo:42044:1,2002-08-05T18:30:00Z,26.1914,-97.0507,-2.0,28.21,11111222 
TABS,ioos:station:wmo:42044:1,2002-08-05T19:00:00Z,26.1914,-97.0507,-2.0,28.25,11111222 
TABS,ioos:station:wmo:42044:1,2002-08-05T19:30:00Z,26.1914,-97.0507,-2.0,28.3,11111222 
TABS,ioos:station:wmo:42044:1,2002-08-05T20:00:00Z,26.1914,-97.0507,-2.0,28.41,11111222 
TABS,ioos:station:wmo:42044:1,2002-08-05T20:30:00Z,26.1914,-97.0507,-2.0,28.48,11111222 
TABS,ioos:station:wmo:42044:1,2002-08-05T21:00:00Z,26.1914,-97.0507,-2.0,28.49,11111222 
TABS,ioos:station:wmo:42044:1,2002-08-05T21:30:00Z,26.1914,-97.0507,-2.0,28.46,11111222 
TABS,ioos:station:wmo:42044:1,2002-08-05T22:00:00Z,26.1914,-97.0507,-2.0,28.45,11111222 
TABS,ioos:station:wmo:42044:1,2002-08-05T22:30:00Z,26.1914,-97.0507,-2.0,28.43,11111222 
TABS,ioos:station:wmo:42044:1,2002-08-05T23:00:00Z,26.1914,-97.0507,-2.0,28.42,11111222 
TABS,ioos:station:wmo:42044:1,2002-08-05T23:30:00Z,26.1914,-97.0507,-2.0,28.42,11111222 
TABS,ioos:station:wmo:42044:1,2002-08-06T00:00:00Z,26.1914,-97.0507,-2.0,28.37,11111222 
TABS,ioos:station:wmo:42044:1,2002-08-06T00:30:00Z,26.1914,-97.0507,-2.0,28.32,11111222 
TABS,ioos:station:wmo:42044:1,2002-08-06T01:00:00Z,26.1914,-97.0507,-2.0,28.3,11111222 
TABS,ioos:station:wmo:42044:1,2002-08-06T01:30:00Z,26.1914,-97.0507,-2.0,28.27,11111222 
TABS,ioos:station:wmo:42044:1,2002-08-06T02:00:00Z,26.1914,-97.0507,-2.0,28.24,11111222 
TABS,ioos:station:wmo:42044:1,2002-08-06T02:30:00Z,26.1914,-97.0507,-2.0,28.25,11111222 
TABS,ioos:station:wmo:42044:1,2002-08-06T03:00:00Z,26.1914,-97.0507,-2.0,28.22,11111222 
TABS,ioos:station:wmo:42044:1,2002-08-06T03:30:00Z,26.1914,-97.0507,-2.0,28.21,11111222 
TABS,ioos:station:wmo:42044:1,2002-08-06T04:00:00Z,26.1914,-97.0507,-2.0,28.19,11111222 
TABS,ioos:station:wmo:42044:1,2002-08-06T04:30:00Z,26.1914,-97.0507,-2.0,28.16,11111222 
TABS,ioos:station:wmo:42044:1,2002-08-06T05:00:00Z,26.1914,-97.0507,-2.0,28.11,11111222 
TABS,ioos:station:wmo:42044:1,2002-08-06T05:30:00Z,26.1914,-97.0507,-2.0,28.11,11111222 
TABS,ioos:station:wmo:42044:1,2002-08-06T06:00:00Z,26.1914,-97.0507,-2.0,28.09,11111222 
TABS,ioos:station:wmo:42044:1,2002-08-06T06:30:00Z,26.1914,-97.0507,-2.0,28.06,11111222 
TABS,ioos:station:wmo:42044:1,2002-08-06T07:00:00Z,26.1914,-97.0507,-2.0,28.03,11111222 
TABS,ioos:station:wmo:42044:1,2002-08-06T07:30:00Z,26.1914,-97.0507,-2.0,28.01,11111222 
TABS,ioos:station:wmo:42044:1,2002-08-06T08:00:00Z,26.1914,-97.0507,-2.0,27.99,11111222 
TABS,ioos:station:wmo:42044:1,2002-08-06T08:30:00Z,26.1914,-97.0507,-2.0,27.96,11111222 
TABS,ioos:station:wmo:42044:1,2002-08-06T09:00:00Z,26.1914,-97.0507,-2.0,27.96,11111222 
TABS,ioos:station:wmo:42044:1,2002-08-06T09:30:00Z,26.1914,-97.0507,-2.0,27.96,11111222 
TABS,ioos:station:wmo:42044:1,2002-08-06T10:00:00Z,26.1914,-97.0507,-2.0,27.95,11111222 
TABS,ioos:station:wmo:42044:1,2002-08-06T10:30:00Z,26.1914,-97.0507,-2.0,27.94,11111222 
TABS,ioos:station:wmo:42044:1,2002-08-06T11:00:00Z,26.1914,-97.0507,-2.0,27.94,11111222 
TABS,ioos:station:wmo:42044:1,2002-08-06T11:30:00Z,26.1914,-97.0507,-2.0,27.92,11111222 
TABS,ioos:station:wmo:42044:1,2002-08-06T12:00:00Z,26.1914,-97.0507,-2.0,27.91,11111222 
TABS,ioos:station:wmo:42044:1,2002-08-06T12:30:00Z,26.1914,-97.0507,-2.0,27.91,11111222 
TABS,ioos:station:wmo:42044:1,2002-08-06T13:00:00Z,26.1914,-97.0507,-2.0,27.92,11111222 
TABS,ioos:station:wmo:42044:1,2002-08-06T13:30:00Z,26.1914,-97.0507,-2.0,27.93,11111222 
TABS,ioos:station:wmo:42044:1,2002-08-06T14:00:00Z,26.1914,-97.0507,-2.0,27.95,11111222 
TABS,ioos:station:wmo:42044:1,2002-08-06T14:30:00Z,26.1914,-97.0507,-2.0,27.96,11111222 
TABS,ioos:station:wmo:42044:1,2002-08-06T15:00:00Z,26.1914,-97.0507,-2.0,27.96,11111222 
TABS,ioos:station:wmo:42044:1,2002-08-06T15:30:00Z,26.1914,-97.0507,-2.0,27.99,11111222 
TABS,ioos:station:wmo:42044:1,2002-08-06T16:00:00Z,26.1914,-97.0507,-2.0,28.0,11111222 
TABS,ioos:station:wmo:42044:1,2002-08-06T16:30:00Z,26.1914,-97.0507,-2.0,28.04,11111222 
TABS,ioos:station:wmo:42044:1,2002-08-06T17:00:00Z,26.1914,-97.0507,-2.0,28.07,11111222 
TABS,ioos:station:wmo:42044:1,2002-08-06T17:30:00Z,26.1914,-97.0507,-2.0,28.09,11111222 
TABS,ioos:station:wmo:42044:1,2002-08-06T18:00:00Z,26.1914,-97.0507,-2.0,28.12,11111222 
TABS,ioos:station:wmo:42044:1,2002-08-06T18:30:00Z,26.1914,-97.0507,-2.0,28.13,11111222 
TABS,ioos:station:wmo:42044:1,2002-08-06T19:00:00Z,26.1914,-97.0507,-2.0,28.15,11111222 
TABS,ioos:station:wmo:42044:1,2002-08-06T19:30:00Z,26.1914,-97.0507,-2.0,28.17,11111222 
TABS,ioos:station:wmo:42044:1,2002-08-06T20:00:00Z,26.1914,-97.0507,-2.0,28.19,11111222 
TABS,ioos:station:wmo:42044:1,2002-08-06T20:30:00Z,26.1914,-97.0507,-2.0,28.36,11111222 